Location: B?dimalle
(17.1788°N, 80.5377°E)
Time: 10:55:55
(UTC+00:00)

Tiros 1 despin weight - Pass Details

Date: 24 February 2026
Orbit: 556 x 593 km, 48.2° (Epoch: 10 March)

Event Time Altitude Azimuth Distance (km) Brightness Sun altitude
Rises 04:06:53 0° 193° (SSW) 2,787 ? 41.5°
Reaches altitude 10° 04:09:38 10° 176° (S) 1,882 ? 42.0°
Maximum altitude 04:12:49 20° 128° (SE) 1,343 ? 42.7°
Drops below altitude 10° 04:15:58 10° 80° (E) 1,867 ? 43.3°
Sets 04:18:40 0° 63° (ENE) 2,757 ? 43.9°
